Location: Bouillancy
(49.1149°N, 2.9308°E)
Time: 06:51:01
(UTC+00:00)

Cosmos 2151 Rocket - Pass Details

Date: 30 September 2020
Orbit: 617 x 642 km, 82.5° (Epoch: 29 October)

Event Time Altitude Azimuth Distance (km) Brightness Sun altitude
Rises 17:58:57 0° 182° (S) 2,921 7.0 -5.8°
Reaches altitude 10° 18:01:11 10° 180° (S) 2,021 6.2 -6.2°
Maximum altitude 18:05:38 70° 97° (E) 683 3.6 -6.9°
Drops below altitude 10° 18:10:10 10° 14° (NNE) 2,047 6.1 -7.7°
Sets 18:12:26 0° 12° (NNE) 2,963 7.0 -8.0°
